RH
67 69 69 67 65 64 62 60 56 53 50 48 45 44 47 52 54 54 53 54 55 56 55 53 55 59 62 64 64 66 73 77 77 75 75 76 72 71 74 73 71 69 69 70 70 69 68 67 66 65 65 64 64 63 62 62 63 62 63 64 63 64 62 60 67 70 61 57 58 51 49 57 58 55 59 62 60 60 60 60 60 60 60 61 62
67 68 69 68 65 63 62 60 59 56 52 50 48 45 45 49 53 57 58 57 55 56 57 55 55 57 61 63 64 67 71 75 78 77 76 76 74 73 75 75 72 69 67 69 71 71 71 68 66 65 66 66 65 65 65 63 63 64 64 64 64 64 66 65 66 71 70 65 64 61 59 63 62 57 61 63 62 61 60 57 58 60 63 65 66
67 67 69 69 66 64 63 61 60 59 55 53 51 48 46 47 51 56 59 59 56 55 56 56 56 57 60 61 63 68 72 74 76 77 75 74 73 72 74 74 72 70 67 66 68 71 71 68 65 65 66 68 68 68 69 67 65 66 65 63 64 63 65 68 67 70 73 69 67 67 66 67 67 63 64 64 62 61 60 59 60 62 64 67 68
67 68 69 70 68 65 64 63 61 60 58 55 54 53 50 49 52 55 57 59 58 55 54 56 57 58 60 61 63 67 71 72 73 75 74 73 70 68 68 70 71 70 68 65 66 69 70 68 67 67 66 68 70 70 69 68 66 66 66 64 65 64 64 67 68 69 71 71 69 68 67 67 68 66 66 67 65 64 66 67 68 69 70 70 69
68 69 70 70 70 68 65 64 63 62 61 58 56 56 55 53 53 55 57 59 59 57 54 55 58 60 61 62 63 66 69 70 70 71 72 71 70 67 65 65 67 68 68 66 66 69 72 69 65 66 68 69 71 72 69 68 66 65 65 64 63 63 63 64 65 65 67 69 68 65 65 67 68 68 68 69 70 70 71 71 71 71 70 68 66
69 69 71 70 70 69 68 66 64 63 62 60 58 58 58 57 56 57 58 58 59 59 55 55 58 60 61 62 63 65 68 69 67 67 68 70 71 71 69 66 66 67 68 67 66 67 70 71 66 65 68 69 70 70 68 66 65 64 64 64 62 61 60 61 61 61 62 63 63 64 66 69 70 71 70 72 74 74 73 72 69 67 66 66 66
68 68 70 71 70 69 68 67 66 64 62 60 58 57 58 58 57 58 59 59 59 59 57 55 57 59 61 62 64 65 65 67 67 65 66 68 70 73 73 71 70 70 69 67 67 66 66 69 71 69 68 69 69 68 67 64 63 63 63 64 63 62 62 62 62 63 65 66 68 69 71 72 73 75 74 74 75 73 72 72 69 64 64 67 69
66 67 69 70 70 68 68 68 66 64 62 60 57 56 56 57 58 58 59 59 59 59 58 57 56 58 60 62 64 65 65 65 66 66 65 66 69 72 72 72 71 72 71 68 67 67 66 68 71 71 70 68 68 68 68 65 63 63 63 63 64 64 64 64 64 65 67 70 72 73 74 76 77 77 76 75 74 71 68 68 68 69 71 74 77
64 65 67 69 70 68 67 68 67 65 62 60 58 56 55 56 58 58 59 59 58 58 58 58 57 58 60 62 63 65 66 65 65 65 64 64 66 69 70 70 70 71 71 70 68 67 67 67 69 70 69 67 66 66 68 67 66 64 64 64 65 64 64 65 66 67 69 72 74 76 79 82 80 80 78 75 73 69 66 68 74 79 82 83 80
63 64 64 66 69 69 67 67 67 66 64 61 58 56 55 56 58 58 59 59 58 58 58 58 58 59 60 63 64 65 66 66 64 63 63 63 64 66 68 69 70 70 69 69 69 68 68 68 68 69 69 67 65 63 64 65 65 65 65 64 64 65 64 64 65 67 71 75 78 79 83 85 81 79 77 74 72 69 69 75 81 84 85 84 77
58 62 64 66 68 68 68 67 67 66 64 62 58 56 55 55 57 59 59 59 59 57 57 58 59 59 61 63 65 66 67 66 64 62 61 61 62 64 67 69 69 70 70 69 69 68 68 68 68 69 69 67 65 61 59 59 60 61 61 60 62 63 63 64 66 67 71 76 78 81 85 85 81 79 78 76 73 71 72 76 79 82 84 87 85
62 59 60 64 68 68 67 67 66 65 64 63 59 56 56 56 57 59 60 60 60 58 56 57 58 60 61 63 65 66 66 66 64 62 60 60 61 62 65 67 68 69 70 70 69 68 68 68 67 68 68 65 63 61 58 56 56 56 56 56 58 58 58 61 64 67 71 75 79 81 82 81 79 77 75 74 71 69 72 72 74 80 86 89 89
76 73 66 65 66 67 67 65 65 65 63 63 61 57 57 57 57 59 60 60 60 58 56 56 58 60 61 63 65 65 64 65 65 63 61 60 60 61 63 66 67 67 67 67 68 67 66 66 66 66 65 62 60 58 56 55 54 54 55 56 57 57 57 57 59 61 64 68 72 73 70 69 69 61 54 58 63 65 68 68 71 82 89 88 86
72 78 77 73 66 64 66 64 64 65 63 63 62 59 59 59 57 58 59 60 60 59 57 56 57 60 60 61 65 65 65 65 64 64 64 62 61 62 63 64 65 65 65 64 65 65 65 64 64 64 64 62 59 56 54 52 50 51 53 54 55 56 57 58 58 59 60 62 65 63 57 55 55 46 40 47 57 61 64 68 75 86 90 87 84
59 63 69 73 67 63 64 64 64 65 64 64 64 61 60 60 59 58 58 60 60 59 58 56 56 59 60 61 63 65 67 66 65 65 65 64 64 64 65 65 64 63 64 64 64 64 63 63 63 62 61 60 58 56 53 51 50 48 48 50 51 52 54 56 58 60 62 62 62 58 51 48 49 48 49 54 58 60 67 77 86 90 88 85 84
59 59 62 67 66 63 63 64 64 64 64 65 65 63 62 60 60 59 57 59 60 60 59 58 56 57 60 61 62 64 66 67 67 67 67 67 67 67 68 69 66 63 62 63 64 64 63 63 62 61 60 57 55 53 51 51 52 52 51 51 51 52 54 56 59 63 65 64 62 60 57 57 59 60 62 64 65 70 79 88 89 85 82 86 88
60 61 61 63 63 63 62 63 64 64 65 66 66 65 63 61 60 59 58 58 60 61 60 58 57 56 58 61 63 63 65 67 68 68 68 69 69 70 71 72 69 65 62 60 61 61 61 61 59 59 59 57 55 53 51 51 52 54 56 58 59 60 59 60 62 65 68 70 71 71 70 70 71 72 72 72 72 76 84 87 83 79 83 90 92
58 59 60 59 60 62 62 62 64 64 65 66 66 66 64 62 61 60 58 57 58 60 60 59 58 56 55 58 62 63 65 65 66 68 68 68 69 70 72 73 73 70 65 62 60 59 59 59 58 59 58 57 56 56 55 55 55 55 57 61 68 71 67 65 68 71 74 75 72 70 70 71 73 76 78 79 78 79 82 82 80 80 86 91 92
54 55 56 56 58 61 61 62 63 63 65 65 65 66 65 62 61 60 59 57 55 57 60 59 59 58 56 56 57 60 64 64 64 66 66 66 67 67 70 74 75 73 69 65 62 61 60 61 62 63 61 57 57 58 57 58 58 57 56 60 68 71 66 65 70 74 75 73 69 71 74 74 74 76 78 82 83 81 79 79 79 82 88 91 91
47 48 50 53 57 60 61 62 62 62 64 65 64 65 65 63 62 60 60 58 54 55 58 59 59 58 57 57 55 56 59 61 62 62 61 62 64 65 69 74 75 74 71 68 65 62 60 59 61 64 66 64 62 61 61 62 62 60 60 61 64 64 61 64 70 72 73 74 76 81 83 80 77 75 76 80 82 81 79 78 80 85 90 91 92
40 41 44 49 55 59 60 62 62 62 63 64 64 65 65 64 63 61 60 59 55 54 56 58 59 59 58 58 57 56 56 57 58 59 58 58 59 61 67 71 70 70 70 69 69 66 62 58 55 56 61 65 66 65 65 65 66 66 65 65 64 62 63 68 72 74 78 83 85 85 84 85 86 83 82 84 84 82 81 80 83 89 93 96 96
39 37 41 48 54 59 61 62 63 63 64 64 65 65 65 64 64 62 61 59 56 54 55 58 60 60 60 60 59 59 58 57 57 57 57 56 56 58 63 65 64 67 70 71 71 70 66 63 57 50 50 54 59 64 66 67 68 69 69 68 67 67 70 75 77 79 83 87 87 85 84 86 89 87 86 85 82 78 76 76 82 90 95 94 86
41 38 41 49 54 57 61 63 63 64 65 65 65 66 66 65 65 63 62 60 58 57 57 59 62 63 63 63 62 61 60 59 58 57 56 57 56 57 59 61 61 64 69 71 71 69 66 64 60 55 51 50 51 54 58 61 65 67 67 68 71 73 77 81 82 84 87 88 88 87 85 84 84 83 83 83 81 77 74 73 76 81 82 75 63
44 40 41 48 54 57 61 63 65 65 66 67 67 67 67 67 66 65 64 62 61 60 59 61 65 65 65 65 64 62 61 61 60 59 57 57 56 57 58 59 60 62 66 68 68 67 66 65 62 60 61 61 58 56 55 56 57 59 61 65 71 77 82 86 88 88 89 89 88 87 86 84 82 80 80 81 80 78 75 74 74 74 67 55 45
46 41 42 47 52 57 61 64 66 66 67 69 69 69 70 70 69 68 67 65 63 62 61 62 64 66 66 66 65 63 62 62 62 61 59 58 57 56 57 58 58 60 63 65 66 66 67 67 65 65 66 67 66 66 65 64 61 60 61 65 72 80 86 90 92 92 91 90 89 88 85 83 81 79 79 82 82 79 76 74 71 66 54 40 36
48 43 45 48 51 56 62 66 68 68 69 71 71 71 72 73 72 71 70 68 66 64 63 62 62 64 64 64 64 63 62 63 64 63 61 61 59 57 57 58 59 59 60 63 67 69 70 69 69 70 70 69 70 70 70 70 69 69 70 72 76 82 86 89 90 90 90 90 89 87 84 81 79 80 82 85 83 78 74 68 60 52 42 37 44
51 47 49 51 53 57 62 66 69 70 71 72 73 74 74 74 74 74 73 71 69 67 66 64 62 61 62 62 62 62 61 63 65 64 62 62 62 61 59 59 59 61 64 68 71 72 72 71 72 74 75 75 75 74 73 73 74 74 75 76 78 81 84 85 86 86 86 86 86 87 86 84 84 85 87 85 79 74 71 64 54 46 43 46 58
52 50 52 55 57 59 62 66 69 70 72 73 74 76 76 75 75 75 75 74 72 69 68 67 63 60 59 58 60 61 60 62 64 63 60 60 61 62 63 62 62 63 66 71 74 75 75 75 76 77 77 76 76 76 77 79 79 78 78 78 79 82 84 85 86 85 84 85 88 89 89 88 87 87 84 77 71 70 68 62 52 48 50 58 67
54 54 55 57 60 61 62 65 68 69 70 72 73 74 76 77 76 75 75 74 73 71 68 67 64 60 58 55 56 59 60 60 59 57 54 54 56 59 61 62 63 64 63 67 74 79 79 80 80 79 78 77 76 77 80 84 85 84 83 82 83 86 87 87 86 85 86 91 94 92 90 87 84 81 76 72 71 72 67 60 54 53 57 63 68
59 58 59 60 61 63 64 66 68 69 70 71 73 75 76 77 76 76 76 75 74 72 69 67 64 61 58 55 53 54 55 54 54 53 52 51 51 53 54 56 59 62 62 65 74 81 83 83 83 82 80 80 79 80 83 87 89 88 86 86 86 86 86 85 85 88 94 97 93 89 89 88 84 79 75 72 74 74 66 60 58 58 59 61 63
65 61 61 62 61 63 65 65 66 68 69 70 72 75 78 79 78 77 76 76 76 74 70 67 64 61 59 57 54 52 51 50 52 53 53 52 51 51 52 53 56 59 60 64 75 83 84 85 86 85 83 83 83 82 83 86 89 89 87 86 86 84 83 85 88 94 98 96 90 87 90 88 82 77 73 71 71 67 60 58 61 60 60 60 60
77 70 67 67 66 67 68 69 72 74 73 73 76 78 79 80 81 80 78 76 75 74 71 67 64 62 59 58 56 55 53 52 52 53 53 53 54 53 53 54 56 58 61 67 77 83 83 84 86 86 86 86 85 84 83 84 86 87 86 86 87 87 87 89 92 95 96 93 89 88 88 83 75 72 71 68 63 57 53 56 60 61 60 59 57
86 78 73 72 71 72 71 71 75 78 80 83 88 88 84 81 82 84 84 81 77 75 71 67 64 63 60 59 58 56 54 54 53 53 53 53 54 55 57 58 58 60 66 74 80 83 82 83 84 84 86 87 86 85 84 83 83 84 85 86 88 90 91 92 93 94 94 91 88 87 83 74 67 68 69 64 57 53 52 55 60 60 58 55 53
88 82 79 76 75 77 78 79 78 77 76 80 85 88 89 88 87 87 88 87 84 81 75 70 67 64 62 61 60 59 57 56 55 54 54 53 54 57 61 63 66 71 77 81 83 83 83 84 84 83 84 85 84 84 83 82 82 84 85 87 89 90 92 92 92 93 92 88 83 80 73 62 59 64 65 59 54 53 53 55 59 59 56 52 50
91 87 85 80 75 75 77 80 80 79 78 80 82 84 89 94 94 94 92 88 85 84 81 77 73 69 65 64 63 61 60 58 56 56 56 56 58 62 68 75 84 89 88 87 86 86 85 85 85 84 84 84 83 82 81 82 83 84 85 88 90 91 92 92 91 89 87 83 79 74 63 54 55 61 61 56 55 55 54 56 59 57 54 51 49
95 92 87 80 77 77 76 77 79 82 85 88 89 89 90 92 95 97 95 91 86 84 83 82 80 77 73 69 65 63 61 60 60 61 61 61 63 67 74 84 91 91 87 87 89 89 87 86 86 86 85 84 84 83 82 83 83 83 84 86 88 89 91 89 87 85 82 79 76 72 62 55 57 61 59 58 57 54 51 53 55 53 52 51 48
98 98 94 88 86 86 86 85 86 88 88 89 89 90 90 91 92 94 95 94 90 85 84 85 85 84 81 76 70 67 66 66 67 67 68 69 71 73 78 84 87 86 87 91 92 91 89 89 88 88 87 87 86 85 85 85 87 89 90 90 91 92 92 87 83 83 84 81 77 71 63 59 60 61 58 57 56 53 49 50 51 51 51 50 47
98 99 98 97 95 93 92 92 92 90 88 86 86 86 88 90 91 91 92 92 90 88 88 89 88 87 86 84 80 76 74 75 77 80 82 84 85 84 85 86 87 88 92 94 93 91 90 90 90 89 89 88 86 86 87 88 91 93 93 92 91 90 86 83 83 84 82 78 73 66 61 59 58 56 52 51 51 51 50 49 49 50 50 49 48
98 97 98 98 98 97 94 93 92 89 85 85 85 85 88 92 93 91 91 91 90 91 92 92 92 92 91 90 90 88 87 89 92 94 95 93 91 90 89 88 90 92 93 93 92 91 90 90 89 89 88 87 87 87 87 88 89 90 87 85 84 82 80 82 84 81 76 71 67 61 59 57 55 53 52 51 51 51 52 50 49 50 50 48 49
99 99 98 99 100 99 95 93 93 90 86 86 87 87 90 93 91 90 91 91 92 93 94 95 98 99 97 97 97 95 94 96 97 96 95 94 93 92 92 92 94 95 93 92 91 91 90 90 90 89 88 88 88 88 87 85 84 83 81 80 79 76 74 73 70 66 67 69 67 61 57 56 55 55 56 55 53 52 51 50 48 48 48 47 47
99 99 99 98 99 100 98 96 97 96 93 92 91 89 90 91 90 90 91 92 94 96 97 98 100 99 99 100 98 91 88 92 95 95 95 94 94 94 95 95 95 95 93 91 91 90 90 91 91 91 91 90 89 88 86 83 80 79 79 80 79 77 75 71 66 64 66 68 66 62 59 56 57 58 57 55 53 51 51 51 51 50 49 49 50
99 99 99 97 96 97 99 99 98 98 96 95 94 93 92 91 91 92 94 95 97 98 99 100 100 100 100 101 99 93 91 95 97 96 95 95 95 95 95 95 94 93 92 91 90 90 90 90 90 90 90 90 89 88 86 83 81 80 79 78 77 77 77 75 72 69 67 65 63 63 61 58 57 57 56 55 54 54 54 56 57 55 54 53 54
99 98 100 100 97 97 99 100 100 99 97 96 95 95 94 94 94 96 97 99 100 100 100 99 99 99 99 99 98 96 95 95 95 95 95 96 95 94 94 93 92 92 91 89 88 87 86 86 86 85 85 85 85 85 84 81 79 76 74 72 72 73 73 71 69 67 65 63 62 62 62 60 59 59 58 57 57 56 57 59 60 59 59 60 61
99 98 99 100 100 99 99 100 100 100 99 97 95 94 93 94 94 94 96 98 99 99 99 98 97 96 97 97 96 96 96 96 96 95 95 94 94 94 94 93 92 91 89 87 85 84 83 82 81 80 80 79 79 79 79 77 73 71 69 69 71 72 72 69 67 66 65 63 62 62 62 63 62 61 62 62 62 61 62 63 63 63 65 66 67
98 99 99 99 99 99 100 100 99 100 100 99 98 97 96 96 96 96 96 97 97 97 97 96 95 95 94 94 95 97 97 97 97 96 96 95 95 94 92 91 89 87 85 83 82 80 78 77 76 75 75 75 75 75 75 74 72 71 70 69 69 70 69 68 67 67 66 65 64 64 64 64 65 65 66 67 66 65 67 68 69 69 70 71 71
99 99 99 99 99 99 100 99 99 98 98 99 99 99 99 100 99 99 99 98 98 98 97 96 96 96 96 96 97 98 97 97 96 96 95 94 92 90 89 87 86 84 83 81 79 76 74 73 73 71 70 71 71 72 73 73 73 72 71 69 67 66 66 65 65 64 64 64 64 65 65 66 68 70 70 69 69 70 72 74 75 75 75 75 75
99 99 99 99 100 100 100 99 99 99 99 99 99 98 98 99 98 98 99 98 98 98 99 98 98 98 97 97 97 96 95 94 93 92 91 90 88 87 85 83 82 80 79 78 76 74 72 70 67 64 62 60 59 60 61 62 63 64 64 65 65 65 64 64 64 64 64 65 66 68 69 71 72 73 73 73 75 76 77 79 79 78 77 76 74
97 99 100 100 99 100 100 99 100 100 100 100 100 98 97 96 95 95 95 96 97 98 98 98 98 98 97 96 95 93 91 90 89 89 88 87 84 82 80 78 76 75 72 69 66 63 61 58 55 52 49 46 44 44 44 45 48 50 52 54 56 56 55 58 63 68 70 71 71 71 72 73 74 74 74 74 76 76 76 77 75 72 70 70 69
93 96 99 100 100 100 100 99 100 100 100 100 100 100 99 98 97 95 94 94 96 97 97 96 96 94 93 92 90 88 87 86 85 84 83 80 77 75 73 71 68 64 61 57 53 48 45 43 42 41 39 35 32 31 29 29 31 33 37 42 47 48 49 53 58 63 66 68 67 68 68 68 68 68 68 69 70 70 69 67 63 59 57 56 54
91 93 95 98 99 100 100 99 100 100 100 100 100 99 100 99 99 98 97 95 93 93 93 93 93 92 91 89 88 87 86 85 83 81 79 77 74 71 67 63 60 57 54 51 48 43 38 33 30 28 27 25 23 22 20 18 18 20 25 33 41 45 47 49 50 52 56 59 59 59 60 59 58 58 58 57 55 54 55 54 52 48 44 41 39
92 91 92 94 96 98 99 99 99 99 100 100 100 99 100 99 97 96 95 94 92 91 89 89 89 88 87 86 85 83 82 81 79 78 76 73 70 68 66 64 62 58 55 54 52 47 38 29 24 22 20 18 17 16 15 15 16 17 20 29 38 42 43 44 44 44 46 47 46 47 50 49 49 49 46 39 35 37 42 45 46 44 41 37 36
Wind_Speed
42 41 41 40 40 40 41 42 42 41 40 40 40 40 38 37 36 35 35 34 32 31 31 32 32 32 31 29 28 26 27 27 25 24 25 23 21 20 18 18 18 18 17 15 15 14 14 14 13 12 11 11 10 11 11 9 9 9 7 7 9 10 11 12 11 14 18 16 15 15 14 14 15 14 15 17 17 17 19 20 21 22 22 22 22
43 42 41 40 40 41 42 42 41 41 40 40 40 41 40 39 38 36 35 35 35 33 33 34 34 33 33 31 29 29 29 29 27 26 26 26 24 22 21 19 19 19 19 19 17 16 15 15 15 14 13 13 13 13 13 12 11 11 11 11 12 13 13 14 14 15 18 19 18 18 18 17 18 18 17 18 19 19 20 21 20 20 21 20 20
43 43 42 42 42 41 41 42 42 41 40 40 41 41 41 40 39 37 36 36 36 36 34 35 36 35 35 33 31 30 30 30 29 28 28 27 27 26 24 22 21 20 20 21 20 19 18 17 16 16 15 15 16 15 14 14 13 13 15 15 15 15 15 16 17 17 18 20 20 19 19 19 20 20 20 20 21 21 20 20 19 19 19 19 20
41 41 41 42 42 41 40 41 42 42 42 41 41 41 41 40 39 38 37 36 36 37 36 35 37 37 36 35 34 32 32 31 31 30 30 29 29 28 27 25 24 23 22 21 21 20 21 20 18 17 17 17 17 17 16 15 15 16 16 15 15 15 15 16 18 19 19 19 19 20 20 21 21 22 22 22 21 21 20 20 19 18 18 18 19
39 40 41 41 40 40 41 41 42 43 43 42 41 41 40 39 39 38 38 36 36 38 37 36 37 38 38 37 36 34 34 33 33 33 31 30 30 30 29 28 27 25 24 23 22 21 21 22 22 20 18 18 18 18 18 17 16 16 17 16 15 14 14 15 17 19 19 19 21 22 22 22 22 23 22 22 23 22 21 20 19 19 20 20 20
38 37 38 39 40 41 41 41 42 44 44 43 42 41 40 39 39 38 39 37 36 37 39 37 37 39 39 38 37 36 35 35 35 34 33 32 31 31 30 29 28 27 26 25 24 23 22 22 22 21 20 20 20 20 19 19 18 17 17 18 16 16 16 16 17 18 20 22 23 23 23 23 23 24 22 20 20 21 21 20 20 20 21 22 22
37 36 37 38 39 41 42 43 43 44 45 44 42 41 40 39 39 39 39 39 37 37 39 39 38 39 40 39 38 38 37 37 37 36 35 33 32 31 31 30 29 28 27 27 26 24 23 23 22 22 21 22 22 21 21 20 20 19 19 18 18 18 18 18 18 18 20 21 21 22 23 23 22 23 21 18 17 19 20 22 23 22 22 22 21
37 36 36 37 39 41 42 43 43 43 43 43 42 41 41 40 40 40 40 40 39 38 39 40 39 39 40 40 39 38 38 38 38 37 36 34 33 32 31 31 30 29 28 28 27 26 24 24 24 24 23 23 23 23 22 21 21 21 20 19 19 19 19 20 20 20 20 20 21 21 22 22 21 20 19 18 19 20 19 21 23 22 18 16 14
36 36 35 37 40 41 42 41 41 41 41 42 42 42 42 41 40 40 40 41 40 38 38 40 40 39 39 40 39 38 38 38 38 38 38 36 34 33 32 31 31 30 29 28 28 28 27 26 26 26 26 25 24 24 24 23 22 22 21 21 21 21 21 21 20 21 21 21 22 22 21 21 21 20 20 19 19 21 19 18 18 15 11 11 13
35 35 37 39 39 39 39 40 40 40 41 42 43 42 42 41 40 40 41 41 40 39 38 39 40 39 39 39 38 38 38 38 39 39 38 38 36 33 32 32 31 31 30 29 29 29 28 28 27 27 26 26 25 24 23 24 24 24 23 22 22 22 23 23 22 22 21 21 22 21 19 21 23 22 20 19 18 18 16 12 11 11 11 14 18
36 35 35 36 37 37 37 39 40 40 42 43 44 43 42 42 41 40 41 41 41 39 38 38 40 40 39 39 38 38 38 38 39 39 39 39 37 35 32 32 32 31 31 31 31 30 29 29 28 27 26 26 26 25 24 24 24 25 25 25 24 23 23 23 24 24 23 22 23 21 19 21 24 22 19 17 15 14 13 12 13 15 14 13 15
27 34 35 33 34 36 38 38 39 40 41 42 44 44 42 42 41 40 40 41 41 39 38 38 40 40 39 39 39 38 38 37 39 40 40 40 39 37 34 32 32 32 32 31 32 31 31 30 30 29 28 27 27 27 27 27 27 26 26 26 26 26 25 24 24 24 24 23 23 22 22 23 24 23 20 18 16 15 16 16 16 16 14 12 13
21 22 27 32 36 36 37 38 38 39 40 42 42 42 41 41 41 41 41 41 41 40 38 37 39 39 39 39 39 39 39 38 38 39 41 41 41 39 37 34 32 33 33 33 32 32 32 31 31 30 29 28 28 28 28 28 28 29 29 29 28 28 28 27 27 26 26 26 26 26 27 26 27 28 27 24 21 19 19 19 19 16 14 13 15
20 21 23 28 35 38 37 38 38 38 39 40 40 40 40 41 41 41 40 40 41 41 40 37 37 39 40 39 38 38 39 39 39 39 40 41 41 41 39 36 34 33 34 34 34 33 33 33 32 32 31 29 27 27 27 28 28 28 29 30 30 30 30 30 29 29 30 30 31 32 33 32 31 31 29 25 23 22 21 21 19 16 14 15 17
29 28 28 31 35 39 39 39 39 38 38 39 39 40 40 40 40 40 38 39 41 42 42 39 37 38 39 39 38 37 38 39 40 40 40 40 41 41 41 38 35 33 33 34 34 35 34 33 33 33 32 31 29 28 27 27 27 29 30 30 30 30 30 30 30 29 30 31 32 33 32 30 29 27 24 22 23 22 19 17 15 14 16 18 20
33 36 37 36 37 41 42 40 40 39 38 38 38 39 40 39 39 39 37 37 39 40 41 40 39 38 38 39 39 38 37 39 40 40 40 40 40 41 42 39 36 34 33 33 34 34 35 34 34 34 34 34 33 31 29 27 26 27 30 31 31 31 31 30 28 28 27 27 27 27 26 23 22 21 21 21 21 18 15 13 13 16 18 18 19
35 36 36 35 38 42 43 42 41 39 38 39 38 39 40 40 39 38 36 35 36 38 39 39 40 39 38 38 39 39 38 38 39 40 40 39 40 41 42 40 37 36 35 34 34 34 34 35 35 35 35 35 34 33 31 30 29 27 28 29 29 30 30 29 28 26 24 22 21 21 21 21 21 21 22 21 20 17 14 14 17 20 18 14 14
35 36 35 35 37 42 43 42 42 40 40 40 39 39 40 40 39 38 37 35 35 37 38 38 38 40 39 38 38 39 38 39 39 40 40 40 40 41 42 40 38 37 36 34 33 33 33 34 35 36 36 35 34 33 31 31 31 30 29 28 27 27 28 28 26 23 20 16 16 18 20 22 24 25 24 22 19 16 16 18 20 20 16 13 13
36 36 35 35 37 41 42 42 42 42 41 41 40 40 39 39 39 38 37 36 34 34 36 36 36 38 39 39 38 37 36 38 40 40 39 40 40 42 42 40 38 38 37 36 35 33 31 31 31 33 35 36 35 34 32 31 31 32 31 29 27 28 29 28 24 21 18 16 16 16 15 15 17 20 22 23 20 17 16 17 17 17 17 16 14
37 37 34 33 35 39 41 42 43 43 42 41 40 40 39 38 38 38 37 36 34 33 34 35 35 36 37 38 39 38 36 35 38 40 40 40 41 42 42 40 38 38 38 38 38 36 35 33 31 30 31 32 33 33 32 31 31 32 32 31 30 31 31 27 23 19 16 13 11 9 8 8 8 9 12 14 14 13 13 14 15 16 17 15 12
35 35 33 31 35 39 40 42 43 42 42 41 39 38 38 37 38 38 37 36 35 33 33 35 35 34 35 36 37 39 39 37 36 37 39 39 41 43 43 42 41 40 39 38 37 36 37 38 37 35 33 32 32 31 31 30 30 30 32 32 33 33 30 24 19 16 12 9 6 4 6 6 3 2 3 6 8 11 12 13 14 14 12 10 9
33 34 33 31 35 38 39 40 41 40 39 39 38 37 37 37 37 38 37 36 35 34 33 33 34 34 34 35 36 37 39 39 38 37 37 38 40 42 44 44 43 42 39 37 36 36 36 37 39 40 39 38 37 35 33 32 31 31 32 32 31 31 28 23 18 15 12 8 6 4 4 3 1 2 3 4 7 8 8 7 8 9 9 8 8
31 34 34 33 35 38 39 39 39 38 38 39 39 37 36 36 36 37 37 36 35 35 34 33 33 32 32 34 35 36 37 39 41 40 39 38 39 41 43 45 44 43 40 37 37 37 37 37 37 38 38 38 39 39 37 36 34 34 35 33 31 29 27 23 19 15 12 9 8 8 8 8 8 9 9 10 10 9 8 7 8 9 8 7 7
31 34 36 36 36 37 38 38 38 38 37 38 38 37 36 36 36 36 37 36 34 33 33 32 31 31 31 31 33 35 36 37 40 43 43 41 40 40 41 43 44 44 42 39 38 37 37 37 36 35 34 33 34 35 35 35 35 36 35 34 32 29 26 22 19 16 14 13 13 14 15 16 17 18 17 16 15 13 11 10 9 7 5 5 5
32 34 36 37 37 37 37 38 38 38 38 38 38 37 36 35 34 34 35 35 34 33 32 32 31 30 30 30 32 34 36 36 38 41 43 43 42 41 41 43 44 45 43 41 39 38 36 34 33 32 31 30 30 30 30 31 32 32 31 31 32 29 25 22 19 17 16 17 18 20 22 24 23 21 20 19 18 16 13 9 5 2 3 5 3
33 34 35 37 38 37 36 36 37 37 37 37 37 37 36 35 34 33 33 33 33 33 32 32 31 29 29 30 31 33 34 36 38 41 42 43 43 43 43 43 44 45 45 42 38 35 32 31 30 29 29 29 30 30 30 30 29 28 29 30 30 29 26 23 21 20 19 20 20 22 23 22 20 20 20 20 17 14 10 6 2 3 7 6 4
33 34 35 36 37 38 37 36 37 37 37 37 36 35 36 35 33 33 33 33 34 33 32 31 31 29 28 29 30 32 33 34 36 39 42 44 44 44 44 44 45 46 46 43 38 35 32 30 27 25 24 25 26 28 29 29 28 28 28 28 28 28 26 23 21 20 20 20 20 20 19 18 19 20 19 16 12 10 8 5 1 4 4 4 7
33 32 34 36 35 37 37 36 36 35 34 34 34 33 34 35 34 35 37 36 35 33 32 32 32 32 31 29 28 29 30 32 35 39 43 44 45 46 46 45 46 48 48 45 40 35 32 29 26 22 19 18 18 19 21 22 22 23 24 26 27 26 22 19 18 18 18 18 17 16 17 18 18 17 14 11 9 8 7 4 1 4 5 7 7
34 31 33 35 34 35 37 36 36 35 34 34 34 33 34 35 34 34 36 37 37 35 34 34 35 36 35 33 31 28 28 33 39 42 43 44 44 46 46 46 47 47 47 46 41 34 29 26 24 22 20 17 15 12 11 12 14 15 17 20 23 22 20 19 18 17 16 16 15 17 20 19 16 13 10 7 6 6 4 2 3 5 7 6 5
32 29 29 31 32 33 33 32 32 32 31 31 31 31 32 34 34 32 32 34 37 38 35 34 35 36 36 37 38 36 35 37 40 41 42 42 42 44 44 44 44 44 44 44 41 33 28 25 23 21 20 18 16 12 10 10 10 11 13 16 18 20 20 20 19 19 18 19 20 22 22 18 13 11 7 5 5 5 3 1 3 4 6 5 4
23 26 27 29 31 32 31 31 32 33 32 32 31 29 27 28 30 32 31 31 34 37 36 35 36 36 36 37 38 40 40 37 35 35 37 39 40 42 42 41 40 40 40 41 40 34 28 24 22 21 20 19 17 16 14 13 13 14 14 16 18 20 21 21 22 22 22 23 24 23 19 13 10 9 8 6 7 6 3 3 4 4 4 3 3
11 13 14 15 19 20 18 15 15 16 20 22 22 24 27 26 24 26 28 29 32 36 38 37 36 36 37 37 36 38 39 37 33 33 34 34 35 37 39 39 37 37 38 39 37 34 31 27 23 22 22 20 18 18 17 17 17 18 18 19 21 22 23 24 25 25 25 26 26 23 17 12 11 10 9 8 8 7 6 6 7 5 5 5 5
9 3 2 4 8 11 13 14 12 8 6 4 4 8 16 21 21 21 20 21 26 32 36 36 35 35 36 37 36 37 38 37 34 33 32 32 32 32 33 34 35 37 38 37 32 29 29 28 25 23 22 21 20 19 19 20 21 21 23 25 26 26 26 26 26 26 26 24 22 20 17 13 12 12 11 10 9 8 7 8 9 8 8 8 5
7 1 1 3 5 6 6 11 17 19 18 17 14 11 13 14 14 17 18 16 17 22 27 30 31 32 34 36 35 34 35 36 36 34 33 32 31 29 30 34 35 34 32 30 28 27 27 26 25 24 23 22 21 20 20 22 23 23 24 27 28 28 28 27 26 26 24 20 18 17 16 14 14 14 14 12 11 9 9 10 11 11 12 10 5
4 3 5 7 10 11 10 11 14 17 20 23 24 23 17 11 10 13 17 18 18 18 18 21 24 26 30 33 33 30 30 33 35 34 32 31 29 28 30 29 24 21 22 24 25 24 24 24 25 24 24 23 22 21 22 23 23 23 25 28 29 28 27 27 26 24 22 20 20 17 15 13 14 14 13 12 12 11 10 11 12 14 13 9 6
4 7 11 13 13 15 18 19 19 18 17 15 15 18 21 17 13 13 14 14 17 19 18 17 19 20 22 26 29 28 28 29 31 30 28 27 27 28 29 25 20 20 25 28 25 21 20 21 22 23 22 21 21 21 22 23 24 25 27 30 31 30 30 30 27 21 19 20 19 15 12 12 13 13 12 11 12 12 10 10 14 15 13 8 7
6 5 9 13 14 13 15 17 17 17 18 17 15 16 20 21 21 21 18 16 17 20 20 19 18 17 18 20 23 24 25 25 25 24 24 25 26 26 27 26 25 25 27 24 19 18 18 18 19 20 20 19 18 18 20 22 25 27 28 29 30 30 29 26 20 15 15 17 15 12 12 13 13 12 11 10 11 11 10 10 13 14 12 8 6
9 7 5 7 10 13 15 16 17 19 19 18 18 22 25 26 26 29 29 27 25 23 23 23 21 20 20 20 21 23 25 24 24 22 21 22 22 21 22 24 26 27 25 21 20 21 19 16 16 18 17 17 17 18 19 21 23 25 25 25 25 24 21 18 16 16 16 15 15 15 16 15 13 13 13 11 10 10 10 10 11 11 10 8 6
13 9 7 6 4 11 15 16 19 22 22 21 23 27 30 31 31 33 34 33 30 26 25 23 21 20 22 23 23 23 22 20 20 21 21 21 20 19 20 23 25 26 25 22 21 21 19 17 17 17 17 17 18 19 21 23 23 23 23 23 22 19 17 17 19 20 18 15 16 19 18 17 15 14 13 12 11 9 8 10 10 9 8 7 6
16 13 10 8 2 9 17 18 18 20 22 26 29 32 32 32 33 33 32 31 28 25 23 20 18 19 22 25 25 24 22 20 17 16 17 18 19 19 21 23 24 25 24 23 22 22 21 19 18 18 18 19 20 20 21 21 20 20 21 21 20 18 17 17 20 20 19 17 18 18 17 16 16 15 14 13 11 9 9 9 8 7 6 5 4
19 17 15 13 11 8 10 13 13 14 17 21 24 25 23 22 23 24 24 25 25 23 21 19 17 18 21 22 23 24 25 24 22 20 18 19 21 21 22 23 24 25 25 24 24 24 24 23 23 23 23 23 23 22 22 21 21 21 21 21 20 19 18 18 19 19 18 16 14 14 14 14 14 15 15 13 10 9 9 7 4 3 3 2 2
21 20 18 18 19 19 16 13 12 12 13 13 13 13 15 17 19 21 21 23 26 27 26 23 19 18 19 20 22 26 26 25 25 24 23 23 24 24 24 25 25 25 26 26 27 27 28 27 27 26 26 25 24 24 23 23 22 22 22 21 20 19 18 17 16 16 15 14 13 12 12 13 13 15 16 13 10 9 8 7 6 4 3 3 3
23 22 20 21 23 24 22 21 20 20 21 22 21 21 23 26 28 27 25 23 24 26 28 28 26 25 24 24 26 28 27 27 28 27 26 26 26 26 27 27 27 27 27 27 28 29 30 30 29 28 26 25 24 24 24 23 23 23 22 21 21 21 20 20 20 19 19 19 18 17 17 17 16 16 15 13 10 9 8 8 8 8 7 6 5
23 22 22 23 25 25 24 23 23 22 22 25 26 26 27 31 33 33 31 28 26 26 27 28 30 31 30 29 29 29 29 29 30 30 29 29 29 29 29 28 28 28 28 29 29 29 30 30 29 28 27 26 25 24 24 24 23 24 23 23 23 22 22 21 21 20 20 19 17 16 16 16 14 13 12 11 9 8 8 7 7 6 5 5 5
25 23 23 25 28 27 26 26 25 24 24 26 26 25 26 29 31 32 31 30 29 28 27 27 28 29 29 29 29 29 30 30 31 31 30 30 30 29 29 29 30 30 30 29 28 28 29 29 30 30 29 28 27 25 24 24 23 23 22 22 22 21 21 20 19 18 17 17 15 13 12 12 10 9 9 8 6 5 5 5 5 4 4 5 6
26 25 24 25 26 26 25 26 26 26 27 28 28 28 27 28 29 30 30 30 31 30 29 28 29 29 29 29 29 30 30 30 30 30 29 30 30 30 29 29 29 29 29 28 27 28 29 29 29 30 30 29 28 26 24 23 22 21 20 19 19 18 17 16 15 13 13 13 12 11 11 10 9 7 6 6 5 5 6 7 7 6 6 6 7
26 26 25 26 26 26 25 25 25 25 26 27 29 30 30 29 30 31 30 29 30 31 30 29 29 30 30 30 30 31 31 30 30 30 30 30 30 30 29 29 29 28 28 27 27 27 28 29 29 30 30 29 28 26 25 23 22 21 20 19 17 16 15 14 13 12 11 12 12 11 11 11 10 8 7 7 6 6 7 7 7 7 7 7 8
30 29 27 26 25 24 24 25 25 24 24 25 26 27 29 31 32 33 32 30 29 29 30 31 31 31 31 32 32 32 33 33 32 31 30 30 29 29 29 30 30 30 30 29 28 28 29 30 30 30 30 28 28 26 25 23 22 21 20 19 18 16 14 14 14 13 13 13 13 12 12 11 10 9 8 8 8 8 8 7 7 7 8 8 9
32 32 30 29 28 26 25 25 25 24 24 24 25 25 27 29 30 31 32 32 30 29 29 30 32 32 33 33 34 34 34 34 33 33 32 31 31 32 32 32 32 32 32 32 32 31 31 31 31 31 30 29 27 26 24 23 22 21 20 20 19 17 16 16 16 15 14 14 14 13 12 12 12 11 10 9 8 7 7 7 7 7 8 8 9
31 31 29 28 29 29 28 28 27 25 24 25 25 25 26 27 27 27 29 31 31 30 29 29 31 32 34 34 34 35 35 35 35 35 34 33 33 33 33 33 33 33 33 32 31 31 30 30 31 30 29 28 27 25 24 22 21 20 19 18 17 16 16 16 16 14 12 12 13 12 10 10 10 10 9 7 7 6 6 6 7 7 7 7 8
30 30 28 26 27 28 29 30 29 27 26 25 25 25 26 27 27 26 26 27 29 31 31 30 30 31 32 34 35 36 36 36 36 36 35 34 33 33 33 33 32 31 31 30 29 29 29 29 29 29 28 27 26 25 23 21 20 18 16 15 15 16 16 16 15 14 13 12 12 11 9 9 9 8 7 6 6 6 6 6 7 7 7 7 6
Wind_Direction
196 198 201 202 203 202 202 202 203 203 202 203 203 203 205 206 207 208 207 207 207 208 208 208 209 209 208 208 209 210 209 210 211 208 204 207 210 208 209 210 210 210 210 214 220 216 213 219 230 233 226 226 230 233 240 248 245 236 228 228 231 235 242 236 235 260 279 290 295 298 305 307 304 300 299 299 301 301 299 299 301 300 299 300 301
195 197 199 202 205 204 203 202 202 202 202 203 204 205 205 206 207 207 206 206 206 207 207 207 208 208 207 207 209 210 211 211 210 210 208 208 209 208 208 210 214 216 213 214 216 214 215 220 226 227 228 231 233 235 240 243 241 238 236 236 238 236 237 241 240 248 268 282 291 296 301 302 300 301 303 302 302 303 302 301 302 302 302 303 302
196 197 198 201 205 206 204 203 201 201 202 203 204 205 206 207 207 207 206 207 206 206 208 207 206 206 206 207 209 210 212 212 211 211 211 211 211 210 208 210 215 219 220 219 216 213 215 221 225 224 225 230 233 234 237 238 237 242 247 245 243 242 239 241 244 244 255 273 285 289 293 296 296 300 304 303 304 306 305 304 303 301 300 299 297
197 197 198 200 203 205 205 204 202 201 201 203 204 206 207 207 207 207 206 207 207 206 208 208 206 204 205 206 207 209 212 213 212 213 215 214 214 213 210 209 213 219 222 224 222 218 216 219 223 223 224 227 231 234 235 235 235 240 248 249 246 247 244 241 245 249 253 265 277 283 288 292 293 297 302 303 306 306 303 301 300 299 298 298 298
197 198 199 200 201 204 205 204 203 202 202 203 204 205 206 206 206 207 206 206 206 206 207 207 206 204 204 205 206 208 211 214 213 213 216 217 217 216 214 212 213 218 222 225 226 223 221 221 222 222 225 228 229 232 236 237 236 238 243 249 251 251 250 246 248 253 256 262 273 280 284 287 289 294 299 301 302 301 299 297 298 299 299 299 301
196 199 199 199 200 203 205 205 204 203 202 202 203 204 204 205 205 206 206 205 206 206 206 206 205 205 204 205 206 207 210 213 214 214 215 217 218 218 217 215 215 218 222 226 228 227 225 226 227 225 226 228 229 231 235 237 238 239 241 246 250 251 253 254 254 257 259 263 269 275 279 283 287 291 296 299 298 297 298 298 298 300 298 296 298
199 200 198 199 200 202 204 205 205 204 203 202 202 203 203 204 204 205 206 205 205 205 205 205 205 205 205 206 206 208 209 212 213 214 215 216 217 218 219 217 216 219 223 226 228 230 229 229 230 231 229 230 231 232 235 237 238 242 244 245 247 249 252 255 257 259 261 264 267 272 277 282 285 288 294 300 296 293 294 293 294 300 300 297 299
200 201 199 199 200 203 204 206 206 205 204 203 202 202 203 203 204 205 205 205 205 205 205 205 205 205 206 206 207 208 209 210 213 214 214 216 217 218 219 219 218 218 222 225 227 229 231 231 232 233 234 234 234 234 235 237 238 240 243 244 246 248 251 254 256 258 261 263 267 272 277 281 281 284 289 293 290 290 293 292 290 295 303 305 307
202 202 201 200 201 203 204 205 206 205 204 203 202 202 202 203 203 204 205 205 206 206 206 205 204 205 206 207 208 208 208 210 212 213 214 214 216 218 220 220 219 219 221 223 226 228 231 232 233 236 237 238 239 238 238 238 238 240 241 242 245 247 250 252 253 255 258 259 264 269 273 275 277 280 283 285 286 290 297 296 291 296 312 318 318
206 206 205 203 202 202 203 204 204 205 204 203 202 202 202 202 203 203 204 205 205 205 206 205 204 204 205 207 207 208 209 210 211 214 215 215 216 218 220 220 219 220 221 222 225 228 230 232 234 237 239 240 241 241 241 240 238 239 240 241 244 245 247 249 251 254 255 255 259 264 267 271 275 277 279 283 287 293 299 302 306 316 325 324 321
208 210 210 206 201 200 202 203 203 204 204 203 202 202 202 201 202 203 203 204 205 205 204 203 203 204 205 206 207 207 208 210 211 214 216 217 216 216 218 221 220 219 221 222 223 226 228 231 233 235 237 239 241 241 242 241 240 240 240 240 241 244 245 247 250 252 252 254 259 262 263 267 274 277 279 282 288 293 296 304 315 320 323 327 322
226 216 213 207 202 201 202 202 204 204 204 204 203 202 202 201 201 202 202 202 203 203 204 203 202 203 204 206 207 208 209 211 212 213 216 218 218 217 218 221 221 220 220 222 224 226 227 230 232 233 234 236 239 241 242 242 242 243 243 242 241 243 245 247 250 251 252 255 259 261 262 267 273 277 278 279 284 289 291 297 308 312 314 317 311
276 256 231 211 202 202 203 202 204 205 205 204 203 202 201 201 201 201 201 201 201 202 203 203 201 202 204 206 208 209 210 211 212 213 216 218 219 218 218 220 221 222 221 222 224 226 227 229 231 233 235 236 238 242 244 245 245 245 245 245 244 244 245 247 250 254 256 258 261 264 266 269 273 278 282 282 284 288 290 296 305 305 301 300 300
254 276 263 228 207 201 203 204 204 205 205 204 204 203 202 202 202 202 201 200 200 201 202 203 202 201 203 205 207 210 211 212 213 214 216 219 220 219 219 220 222 223 224 224 225 226 228 230 230 232 234 236 238 240 243 245 247 247 246 244 244 245 246 248 250 254 257 260 262 266 271 273 275 282 289 288 284 285 289 297 303 299 291 293 300
216 226 234 230 214 202 201 204 204 205 205 204 204 204 204 205 204 202 201 200 200 201 202 203 203 202 203 205 206 209 212 213 214 215 218 220 221 221 220 220 222 224 226 227 226 227 229 230 232 233 234 235 236 237 240 243 246 247 246 244 245 247 248 250 253 255 258 261 264 268 273 277 279 285 291 290 287 288 292 294 294 289 290 296 302
216 212 212 218 215 204 200 202 202 203 204 203 204 204 205 206 205 203 202 201 201 202 202 203 204 203 203 204 206 208 211 213 214 216 218 220 221 221 221 221 222 225 227 229 229 229 230 231 233 235 237 238 239 238 240 244 248 248 246 245 246 247 250 253 256 258 261 265 267 270 274 279 282 284 287 287 287 289 286 279 278 287 294 298 301
218 214 211 215 214 204 199 200 200 201 202 202 203 204 205 206 206 204 203 202 202 203 203 203 205 204 204 204 205 208 210 212 214 216 218 220 220 220 219 219 221 224 227 230 231 232 233 234 235 236 238 240 242 241 241 243 247 250 249 247 246 247 251 255 258 262 265 268 270 272 275 279 280 280 280 280 281 279 271 268 280 290 293 293 296
218 217 215 217 214 205 200 199 198 199 200 201 203 204 205 205 205 205 204 203 203 203 203 204 205 206 207 206 206 208 209 211 214 215 217 218 218 218 218 217 219 223 226 229 231 232 234 236 237 237 238 240 242 242 241 239 242 246 247 247 244 244 250 255 259 262 265 270 277 281 282 281 278 275 275 273 273 272 269 273 284 288 284 281 287
217 219 220 220 213 205 201 199 198 198 200 201 203 204 204 205 205 205 206 205 205 204 204 204 205 207 209 210 209 209 210 212 213 214 216 216 217 217 216 215 217 222 225 228 230 230 230 233 235 236 239 241 242 241 239 238 238 241 243 244 244 246 250 254 256 258 263 274 286 291 292 289 280 275 272 268 267 268 271 276 283 282 278 279 284
218 218 222 220 212 205 202 200 199 199 200 200 202 203 204 204 205 206 206 206 206 205 204 205 206 207 209 211 213 213 213 213 213 214 216 217 217 216 214 213 215 220 224 227 229 230 231 233 234 234 236 239 240 240 239 237 237 239 240 241 244 249 253 254 255 258 266 276 283 296 320 322 299 282 273 264 262 266 273 278 280 278 276 277 278
225 221 220 218 211 206 203 202 201 200 200 200 201 203 204 204 204 205 206 206 206 206 205 204 206 209 209 211 214 216 217 217 216 215 216 218 218 216 213 213 216 219 222 225 228 231 233 235 236 236 235 236 237 238 238 237 237 238 239 241 245 251 254 256 257 258 261 263 264 301 351 358 333 274 259 257 260 265 269 269 266 265 264 261 261
232 226 220 214 209 205 203 202 201 200 200 199 199 202 203 204 204 204 205 206 206 206 205 204 205 207 210 211 214 216 218 219 219 218 218 218 219 217 215 216 219 219 220 223 226 229 233 236 239 240 238 237 237 237 238 239 239 239 241 244 248 251 253 254 255 252 248 252 265 293 333 354 280 225 234 247 247 245 244 236 227 226 226 231 246
236 226 219 212 206 204 203 201 200 199 199 198 198 201 202 203 204 204 204 205 206 206 206 204 203 205 207 210 213 216 218 219 220 221 221 220 220 219 219 220 221 220 219 222 225 229 232 236 240 244 244 242 241 241 241 242 243 243 245 247 249 249 248 248 248 246 246 257 272 279 283 281 271 265 264 258 244 230 222 219 219 218 219 229 246
239 224 218 212 206 203 201 200 199 198 198 198 198 199 201 202 203 204 204 205 205 206 206 204 202 203 205 208 211 214 216 217 219 221 222 223 223 223 222 222 223 222 222 223 227 230 233 236 240 244 246 246 247 247 247 247 247 248 249 249 247 245 243 240 240 242 247 257 266 271 272 270 264 260 258 255 247 235 232 237 237 233 235 248 258
239 224 218 212 206 202 199 197 197 197 197 196 197 198 199 200 202 203 204 205 206 206 207 206 204 202 203 206 208 211 213 214 216 219 222 223 224 225 224 224 224 224 224 225 228 231 233 237 241 245 247 249 251 251 250 249 249 250 251 250 246 241 238 237 238 242 249 255 258 259 259 258 255 252 249 245 239 230 226 228 223 232 301 314 311
237 223 217 212 206 200 196 195 195 196 197 197 198 199 198 199 201 203 203 205 207 208 207 207 206 205 204 205 206 208 209 211 212 216 219 221 223 225 226 225 224 225 226 227 227 229 232 236 240 243 246 249 250 249 249 249 247 246 246 245 242 239 237 239 241 244 247 248 247 248 249 247 245 243 240 234 226 218 215 216 221 343 342 352 46
231 220 214 208 202 197 194 193 193 194 195 197 199 200 200 201 202 203 204 206 207 209 208 207 207 207 206 205 205 206 207 207 209 212 215 219 221 223 224 225 223 222 223 224 224 226 229 231 234 237 240 244 246 247 247 246 244 242 239 239 239 239 238 240 243 245 244 241 239 240 241 239 236 234 228 218 206 201 211 219 271 4 9 61 89
225 216 209 203 197 194 193 192 191 192 194 196 198 200 201 202 205 206 207 207 207 207 207 207 208 208 207 205 205 204 205 206 207 210 213 216 219 221 222 223 221 219 219 220 222 224 226 227 229 231 234 238 242 245 245 242 241 240 237 234 234 233 232 235 236 238 239 235 230 232 234 233 230 221 208 196 189 195 206 203 100 67 95 101 90
221 214 207 199 195 194 193 193 192 191 193 196 198 201 202 204 209 212 213 212 211 211 209 208 208 209 208 207 204 201 203 207 210 213 216 218 220 221 222 222 221 220 221 221 219 220 221 222 223 225 227 231 236 241 242 238 236 235 232 229 225 221 222 226 225 227 227 215 209 221 227 223 212 200 189 180 179 185 185 153 94 92 102 92 75
215 209 204 197 195 194 193 193 193 192 193 195 197 200 202 204 208 213 216 216 215 215 214 213 212 210 210 211 210 207 208 211 213 215 218 221 223 225 225 225 223 222 222 221 217 215 217 217 217 220 223 226 228 227 224 222 220 218 215 215 213 212 216 221 222 218 207 194 201 219 221 209 195 192 191 180 174 178 179 128 106 103 97 79 74
219 208 204 200 197 195 194 194 193 193 193 195 196 196 196 201 208 211 213 215 215 215 216 217 217 216 214 214 214 214 215 217 217 218 219 221 224 225 226 226 224 222 222 219 214 211 214 216 216 220 223 225 225 222 220 217 213 210 207 207 210 213 214 214 211 205 195 193 206 216 212 201 201 203 198 183 174 178 188 170 148 128 110 99 99
258 221 210 199 192 191 190 190 194 200 202 199 198 196 192 193 202 210 213 213 211 212 215 217 218 218 218 217 217 216 217 218 220 222 223 223 224 224 225 226 225 223 222 218 211 209 212 215 217 220 222 223 222 222 222 219 215 213 211 208 208 209 206 203 203 201 197 198 206 210 207 209 211 199 189 190 194 203 212 192 178 171 153 136 114
310 278 227 185 173 178 182 181 185 208 234 240 256 235 214 202 196 197 203 208 207 207 210 214 216 216 216 218 219 219 219 219 219 222 225 226 226 225 224 225 225 222 217 211 207 208 212 213 216 220 221 220 220 220 223 225 224 220 214 208 204 200 198 198 200 200 196 196 202 206 205 202 195 185 185 196 206 213 211 197 194 189 166 147 130
314 306 186 217 214 207 208 202 195 192 191 192 198 219 242 244 221 193 182 182 190 198 203 207 210 211 210 212 216 219 220 220 220 222 225 225 225 223 220 219 219 216 211 208 208 210 211 212 214 217 218 219 220 220 223 227 226 219 209 202 196 192 190 191 192 192 190 189 192 195 193 189 189 188 189 197 208 218 223 220 208 184 160 150 150
289 209 177 197 214 216 228 242 231 209 194 190 188 186 194 222 238 214 195 183 178 182 190 196 201 204 205 206 209 212 215 217 218 219 219 217 214 211 210 207 199 190 195 208 214 214 213 212 213 215 217 218 219 221 224 224 219 210 200 191 186 183 179 177 180 185 185 178 177 182 185 186 190 192 194 201 211 219 224 218 196 171 157 158 169
293 233 209 204 204 201 203 212 216 207 194 185 177 174 177 183 193 208 217 209 189 181 183 187 190 194 198 200 202 204 207 209 208 207 206 204 202 201 198 187 168 170 192 207 212 211 211 214 216 216 215 215 216 219 222 217 209 201 194 186 181 177 173 170 173 179 177 169 169 179 189 185 182 186 193 202 208 210 206 189 174 166 163 169 180
343 295 237 221 208 189 184 191 195 190 182 174 167 170 177 180 179 182 197 215 209 191 182 181 181 180 183 187 191 192 193 193 193 193 192 191 192 193 191 183 177 184 195 201 201 200 201 205 209 208 207 206 207 208 209 203 194 188 184 179 174 171 166 164 166 174 180 180 182 188 190 182 175 177 183 189 196 200 193 176 168 169 171 178 194
10 5 332 269 225 190 175 174 176 176 177 175 173 177 181 184 182 180 186 201 206 194 181 178 177 174 172 173 175 175 174 173 170 167 167 172 177 181 183 182 180 182 184 184 187 189 186 184 187 190 189 190 191 190 186 180 172 168 167 165 161 159 158 160 169 179 187 191 187 183 183 183 179 178 178 173 170 176 181 177 172 171 177 192 208
23 18 5 335 254 196 187 179 171 173 178 181 182 184 184 183 183 184 185 190 190 183 176 174 173 171 167 162 156 151 143 136 135 138 144 153 162 168 171 173 174 174 172 171 174 175 171 167 169 171 171 173 175 173 169 165 159 156 156 155 153 156 163 170 173 173 173 176 178 180 185 188 183 179 178 174 168 167 174 176 173 175 187 207 217
34 32 28 19 46 177 183 179 171 173 181 184 185 188 190 189 188 187 183 176 170 166 164 159 156 157 156 150 142 134 120 109 113 126 133 138 143 148 153 158 161 163 163 161 160 160 156 152 152 153 155 158 157 154 155 154 152 154 157 157 159 165 171 169 167 168 170 176 181 184 187 186 181 177 177 176 170 161 158 160 167 186 207 225 245
45 48 49 45 51 90 136 148 153 169 182 184 184 188 190 188 184 178 167 154 146 142 137 132 136 148 150 144 144 149 146 140 141 144 139 134 135 137 139 142 145 147 147 145 144 143 140 137 137 139 141 142 142 141 141 141 143 148 154 158 160 164 166 167 170 177 181 182 184 189 192 188 182 179 179 174 159 146 146 149 159 199 227 249 270
49 51 55 57 59 62 67 78 98 119 131 132 136 143 145 142 139 137 135 133 132 129 123 119 124 138 145 148 154 157 151 141 137 135 131 128 129 129 128 130 131 132 134 135 137 138 137 135 133 133 134 136 138 138 138 140 143 147 149 151 151 151 150 151 154 158 157 150 147 155 164 161 153 152 155 153 143 134 131 122 105 96 87 75 74
51 51 53 59 64 65 65 69 79 91 99 100 100 103 109 112 111 110 107 108 113 117 117 117 119 123 130 142 149 147 139 132 130 126 121 119 119 117 116 118 121 124 128 130 133 136 137 135 132 132 132 133 136 138 137 137 139 141 141 140 138 135 132 130 129 129 128 127 125 125 126 127 127 129 133 137 137 133 123 109 98 90 79 66 61
52 50 52 57 61 62 63 68 73 80 90 97 99 100 101 102 104 104 103 102 103 106 110 113 116 117 118 123 128 127 123 121 121 119 116 115 114 112 113 115 118 119 121 122 125 129 130 128 126 125 124 124 127 131 131 132 133 134 134 134 134 132 129 127 125 123 123 125 127 125 121 120 121 121 120 121 126 125 116 108 100 90 74 51 32
53 50 51 56 60 58 58 61 65 68 75 81 84 86 90 95 99 103 105 107 108 109 109 110 112 112 110 110 112 111 111 112 112 112 112 112 111 110 112 113 114 114 114 114 116 119 119 118 116 114 113 113 115 118 121 123 126 128 128 129 131 131 130 128 126 124 125 125 125 124 122 118 115 111 104 100 99 95 85 76 69 58 40 19 2
53 52 52 56 59 60 60 62 66 69 72 74 74 74 76 82 88 94 99 103 105 106 106 106 106 106 106 106 106 105 106 106 106 106 107 108 109 111 112 112 113 113 113 113 112 111 109 109 109 107 106 107 108 109 111 114 115 117 118 121 121 121 121 122 122 123 125 123 118 116 114 108 101 95 87 76 65 55 51 50 47 41 30 14 357
52 53 54 57 59 60 61 62 64 66 70 75 78 79 79 80 83 85 88 92 97 99 100 100 101 102 103 103 104 104 104 104 103 103 105 106 107 108 108 106 106 105 105 106 108 108 108 107 106 104 102 102 102 103 104 106 107 107 108 109 109 109 111 116 117 118 119 118 113 109 105 97 85 72 63 60 57 54 52 49 41 30 18 6 357
53 53 53 55 57 59 61 63 64 64 67 72 78 83 86 87 87 87 86 86 88 92 94 96 98 99 100 101 102 103 103 103 102 102 102 102 102 101 101 100 98 97 95 95 96 98 102 104 104 103 102 100 99 99 99 100 102 103 102 101 101 100 102 108 112 112 114 115 113 107 102 97 91 83 76 76 78 73 64 52 32 15 8 3 360
56 56 54 52 52 53 56 61 64 66 69 72 76 80 84 87 90 93 95 93 90 89 91 95 98 100 100 101 102 103 103 103 102 102 102 101 100 100 98 97 96 95 93 91 90 90 91 94 96 98 99 97 96 95 94 95 96 96 95 95 95 94 98 103 107 110 115 115 110 105 103 103 103 102 99 95 89 81 71 56 36 23 17 13 8
57 56 53 50 50 52 55 58 61 63 68 72 74 77 81 83 85 89 94 97 97 96 95 96 99 102 103 104 104 104 104 104 103 102 102 101 100 99 98 97 95 93 91 90 89 88 86 86 87 89 91 92 91 90 87 87 87 87 88 92 94 96 99 100 100 102 108 106 99 98 103 106 106 106 103 94 86 82 79 68 52 38 26 18 16
58 57 54 51 51 52 53 54 55 57 61 66 70 74 79 82 84 86 88 91 95 97 98 97 98 100 102 104 106 106 106 105 105 104 103 102 101 100 98 96 95 94 94 93 91 90 89 88 88 88 87 87 87 86 83 81 80 81 85 92 94 95 97 97 93 92 95 95 92 91 94 96 99 99 89 76 74 77 75 70 62 52 39 26 20